Wind_Speed
37 34 31 33 36 36 36 37 39 41 42 43 42 40 38 35 34 32 30 31 30 29 28 26 25 24 24 23 22 21 20 19
30 35 37 37 39 41 42 37 39 43 44 44 43 42 40 37 36 33 32 33 32 31 30 29 27 27 25 24 23 22 21 20
28 37 39 39 40 40 38 39 43 45 45 44 43 43 41 40 39 34 35 35 34 33 32 31 29 28 26 25 24 23 21 21
29 37 38 41 42 41 40 39 42 44 46 46 46 45 44 44 41 37 37 37 36 35 34 32 31 30 28 26 25 24 22 22
29 31 37 34 36 43 43 43 43 42 45 47 47 45 42 42 40 37 37 38 37 36 35 34 32 31 29 26 26 25 24 23
28 29 32 37 36 38 38 41 44 43 43 46 47 44 43 44 42 39 39 38 37 37 37 35 34 33 30 28 27 26 26 25
29 25 23 34 36 38 40 39 39 39 41 43 45 45 46 47 44 38 40 39 39 39 38 37 35 33 31 29 29 28 27 27
25 33 28 26 33 31 34 37 39 41 42 42 44 46 47 49 47 42 40 39 39 39 38 38 37 35 33 31 31 29 29 28
12 13 17 20 19 23 27 34 38 41 42 41 42 44 46 49 47 45 42 41 41 39 39 39 38 37 35 34 32 31 30 29
10 9 11 15 19 20 22 25 28 32 37 40 41 40 43 48 48 47 45 46 42 40 42 41 39 38 38 37 35 32 34 29
7 9 10 10 13 16 18 19 21 23 27 30 34 39 40 44 48 48 48 47 45 40 39 42 41 41 40 39 37 41 31 30
12 13 12 12 11 11 12 14 15 19 23 28 29 33 40 45 48 48 52 50 47 42 44 43 44 44 43 43 41 38 32 32
15 17 19 16 17 17 16 17 20 22 22 23 25 32 38 43 47 49 51 50 46 43 45 47 51 47 44 46 45 31 34 32
21 19 19 21 19 20 22 24 25 25 26 26 25 23 29 40 47 50 50 52 49 46 49 51 51 52 57 55 42 34 35 34
23 20 21 23 27 27 24 26 27 29 30 31 32 28 26 28 36 48 54 52 49 50 51 53 52 57 55 49 39 36 38 38
20 20 19 18 19 21 26 26 30 32 34 35 33 34 32 29 30 36 48 53 52 52 52 53 54 54 49 45 37 37 41 36
20 20 20 20 20 26 27 31 32 35 36 36 35 38 37 37 31 28 43 50 52 52 53 54 55 50 49 42 39 41 35 37
20 18 19 20 20 25 28 27 34 35 35 35 35 36 36 37 37 36 36 45 51 53 54 55 53 50 46 44 38 32 35 37
15 19 20 21 23 27 30 28 29 34 34 35 34 38 40 36 36 39 40 45 50 53 52 50 43 39 40 35 33 34 34 36
Wind_Direction
243 245 237 237 241 236 235 234 237 239 239 239 240 243 246 250 253 254 255 256 256 258 261 265 270 275 279 282 284 285 285 284
248 244 244 239 241 240 236 238 237 239 239 240 243 244 247 251 255 257 256 257 257 259 261 264 269 273 277 280 282 281 280 280
244 249 245 245 249 250 247 240 239 241 242 242 244 246 248 251 253 256 257 256 256 257 259 263 268 271 274 278 279 277 276 276
243 250 249 245 246 249 248 246 244 243 243 243 244 246 247 249 253 256 257 257 256 258 259 262 265 268 272 274 275 276 273 272
243 241 252 247 247 250 247 247 248 247 246 245 248 251 254 256 256 257 259 258 257 258 259 260 262 266 267 270 272 272 270 270
225 241 245 254 245 249 250 251 250 250 249 250 250 252 252 254 254 254 257 257 257 256 257 258 260 262 265 266 266 266 264 267
221 207 219 250 246 245 250 254 255 252 249 251 252 252 252 253 254 256 260 260 257 254 255 256 258 260 261 262 262 262 261 265
240 237 239 230 252 251 251 252 253 253 251 250 251 252 254 254 251 253 255 258 257 256 255 255 256 257 256 257 258 260 260 264
236 225 218 232 244 253 252 253 252 254 255 252 250 251 252 253 252 254 255 258 254 252 252 253 253 254 254 255 255 258 259 263
257 243 240 238 242 249 253 252 255 256 257 252 248 251 252 256 254 255 252 253 253 254 252 250 251 253 254 254 254 252 260 260
305 283 272 263 249 246 251 255 254 256 260 262 256 250 245 249 255 254 254 252 249 252 254 253 252 253 253 253 252 255 257 261
327 312 296 288 278 273 272 271 274 271 268 267 264 255 246 243 248 250 253 253 255 249 249 250 248 249 248 249 249 255 255 259
319 309 303 294 292 288 288 286 287 288 286 283 276 267 256 246 240 247 252 256 257 252 251 247 246 245 244 245 250 252 254 258
306 299 299 298 290 286 283 286 286 285 285 282 282 278 273 261 248 244 246 249 252 251 250 249 253 244 249 245 247 244 252 255
301 299 289 286 287 285 280 276 273 273 274 275 274 274 278 278 272 255 245 247 250 251 251 251 253 251 262 250 241 245 251 255
294 291 289 289 282 277 279 271 269 270 274 275 272 272 266 266 268 266 255 248 250 252 254 255 257 261 253 241 241 249 252 259
285 283 284 285 284 274 275 271 264 263 264 271 274 269 269 264 264 265 252 250 251 254 256 256 257 258 250 245 242 246 255 262
286 277 281 283 282 276 270 276 267 267 271 273 272 271 269 267 268 264 256 250 251 253 256 258 260 265 256 244 244 255 259 264
283 284 285 284 282 271 269 268 275 278 276 274 274 272 271 270 267 268 263 250 250 254 257 260 267 259 252 248 249 254 262 262
Height
3068 3070 3072 3073 3072 3075 3078 3082 3085 3088 3091 3092 3094 3097 3099 3101 3103 3104 3106 3108 3109 3110 3111 3112 3112 3112 3112 3113 3113 3112 3111 3111
3063 3063 3063 3065 3064 3066 3070 3075 3078 3079 3082 3084 3087 3090 3092 3094 3096 3098 3099 3101 3102 3103 3105 3105 3106 3107 3107 3107 3107 3106 3106 3105
3059 3054 3056 3058 3058 3060 3063 3067 3069 3072 3075 3078 3080 3082 3085 3087 3088 3091 3092 3094 3095 3096 3098 3099 3100 3101 3101 3101 3101 3101 3100 3100
3053 3047 3047 3050 3051 3052 3055 3058 3061 3064 3066 3069 3072 3074 3076 3078 3080 3083 3084 3086 3088 3089 3091 3092 3093 3094 3094 3094 3095 3094 3094 3094
3045 3044 3038 3040 3043 3042 3047 3050 3052 3055 3057 3060 3063 3066 3068 3071 3073 3075 3077 3079 3080 3082 3083 3085 3086 3087 3087 3088 3088 3088 3088 3088
3032 3037 3035 3031 3034 3035 3038 3040 3043 3046 3049 3052 3055 3059 3061 3063 3064 3066 3068 3070 3072 3074 3076 3077 3078 3079 3080 3080 3081 3081 3080 3080
3022 3023 3029 3024 3025 3028 3029 3031 3033 3037 3041 3043 3046 3049 3051 3053 3056 3056 3060 3062 3064 3065 3067 3069 3070 3071 3073 3073 3073 3073 3073 3073
3015 3018 3020 3020 3017 3020 3022 3024 3025 3027 3031 3034 3037 3039 3042 3044 3048 3048 3051 3053 3055 3057 3059 3060 3061 3063 3064 3064 3065 3065 3065 3066
3010 3010 3011 3012 3012 3013 3015 3016 3018 3017 3021 3024 3026 3029 3032 3033 3037 3039 3042 3044 3045 3047 3049 3051 3052 3054 3055 3056 3056 3057 3058 3058
3006 3006 3006 3007 3007 3007 3007 3009 3010 3010 3011 3013 3016 3018 3022 3024 3026 3029 3031 3033 3034 3038 3039 3041 3044 3045 3046 3047 3048 3048 3048 3049
3002 3002 3002 3002 3002 3001 3002 3003 3004 3005 3005 3006 3007 3009 3011 3013 3015 3018 3020 3020 3022 3028 3030 3032 3034 3036 3038 3038 3039 3038 3041 3042
2999 2998 2997 2997 2997 2996 2996 2997 2998 2999 2998 2999 3001 3000 3001 3003 3004 3008 3009 3009 3012 3015 3017 3021 3024 3026 3027 3027 3027 3029 3031 3033
2995 2994 2992 2992 2991 2990 2991 2991 2992 2992 2993 2992 2992 2992 2993 2993 2993 2998 2999 3001 3004 3008 3010 3011 3012 3014 3015 3016 3016 3020 3023 3024
2991 2990 2988 2986 2985 2985 2985 2984 2984 2985 2985 2985 2984 2985 2983 2985 2984 2986 2988 2990 2994 2998 2999 3000 3000 3002 3002 3003 3007 3010 3013 3013
2986 2984 2982 2980 2979 2978 2978 2977 2977 2977 2976 2976 2976 2976 2975 2975 2976 2978 2978 2981 2984 2986 2987 2989 2991 2992 2993 2995 2997 3000 3002 3003
2979 2979 2977 2975 2975 2973 2969 2969 2969 2969 2968 2967 2967 2966 2966 2966 2966 2966 2971 2972 2974 2976 2977 2979 2981 2983 2983 2984 2987 2990 2991 2996
2972 2972 2972 2969 2967 2965 2964 2962 2963 2960 2960 2960 2960 2960 2959 2957 2957 2958 2960 2963 2965 2967 2968 2969 2971 2973 2973 2975 2978 2979 2985 2989
2964 2963 2961 2960 2959 2957 2956 2955 2952 2952 2951 2951 2950 2949 2950 2951 2951 2950 2950 2954 2955 2956 2957 2958 2959 2963 2965 2966 2969 2975 2977 2979
2957 2956 2955 2954 2951 2950 2949 2948 2946 2943 2942 2941 2941 2939 2940 2943 2942 2941 2943 2943 2944 2945 2948 2951 2953 2956 2957 2961 2964 2967 2970 2971